7.9,99.9,1020.3,202110170030
7.5,99.9,1020.2,202110170100
7.5,99.9,1019.9,202110170130
7.2,99.9,1019.8,202110170200
6.9,99.9,1019.9,202110170230
6.3,99.9,1019.9,202110170300
5.5,99.9,1019.7,202110170330
5.0,99.9,1019.8,202110170400
6.7,99.9,1019.7,202110170430
6.7,99.9,1019.5,202110170500
6.7,99.9,1019.6,202110170530
6.7,99.9,1019.7,202110170600
5.3,99.9,1019.9,202110170630
6.3,99.9,1020.2,202110170700
6.6,99.9,1020.2,202110170730
8.4,99.9,1020.6,202110170800
10.2,99.9,1020.6,202110170830
8.7,99.9,1020.8,202110170900
8.7,99.9,1020.7,202110170930
8.7,99.9,1020.8,202110171000
8.7,99.9,1020.7,202110171030
8.2,99.9,1020.7,202110171100
8.0,99.9,1020.3,202110171130
8.2,99.9,1020.2,202110171200
9.0,99.9,1020.1,202110171230
9.3,99.9,1020.0,202110171300
9.0,99.9,1019.8,202110171330
8.4,99.9,1019.8,202110171400
8.3,99.9,1019.8,202110171430
8.5,99.9,1019.8,202110171500
8.5,99.9,1019.7,202110171530
8.5,99.9,1019.8,202110171600
7.9,99.9,1020.0,202110171630
7.9,99.9,1020.1,202110171700
7.3,99.9,1020.3,202110171730
7.2,99.9,1020.5,202110171800
7.4,99.9,1020.6,202110171830
6.9,99.9,1020.8,202110171900
6.8,99.9,1021.0,202110171930
7.8,99.9,1021.2,202110172000
7.2,99.9,1021.6,202110172030
7.2,99.9,1021.9,202110172100
7.2,99.9,1021.8,202110172130
7.2,99.9,1022.0,202110172200
6.7,99.9,1022.1,202110172230
6.6,99.9,1022.2,202110172300
6.3,99.9,1022.2,202110172330
6.3,99.9,1022.4,202110180000
6.2,99.9,1022.4,202110180030
6.4,99.9,1022.5,202110180100
6.5,99.9,1022.3,202110180130
6.3,99.9,1022.4,202110180200
6.3,99.9,1022.5,202110180230
6.2,99.9,1022.4,202110180300
6.3,99.9,1022.7,202110180330
6.1,99.9,1023.1,202110180400
6.2,99.9,1023.4,202110180430
6.2,99.9,1023.6,202110180500
5.9,99.9,1023.9,202110180530
6.0,99.9,1024.2,202110180600
5.4,99.9,1024.4,202110180630
5.3,99.9,1024.7,202110180700
5.3,99.9,1025.0,202110180730
5.5,99.9,1025.1,202110180800
5.7,99.9,1025.4,202110180830
6.2,99.9,1025.5,202110180900
5.9,99.9,1025.6,202110180930
6.2,99.9,1025.4,202110181000
6.5,99.9,1025.5,202110181030
6.7,99.9,1025.3,202110181100
6.9,99.9,1025.2,202110181130
6.8,99.9,1025.3,202110181200
6.9,99.9,1025.0,202110181230
6.8,99.9,1025.1,202110181300
7.0,99.9,1025.0,202110181330
7.2,99.9,1025.0,202110181400
7.2,99.9,1024.9,202110181430
7.0,99.9,1024.8,202110181500
7.0,99.9,1024.9,202110181530
6.9,99.9,1024.8,202110181600
6.9,99.9,1024.8,202110181630
6.9,99.9,1024.7,202110181700
6.3,99.9,1024.5,202110181730
6.4,99.9,1024.7,202110181800
6.3,99.9,1024.7,202110181830
6.4,99.9,1024.6,202110181900
6.5,99.9,1025.0,202110181930
6.3,99.9,1025.1,202110182000
6.3,99.9,1025.1,202110182030
6.2,99.9,1025.1,202110182100
5.9,99.9,1024.9,202110182130
5.8,99.9,1025.2,202110182200
5.9,99.9,1025.4,202110182230
5.9,99.9,1025.3,202110182300
5.9,99.9,1025.1,202110182330
5.6,99.9,1025.1,202110190000
